This is the latest recevied weather packets stored in our database for station/object VK3AFQ-13. If no packets are shown the sender has not sent any weather packets the latest 10 day(s).
| Time | Temp. | Humidity | Pressure | Rain* | Wind** | Luminosity | Snow |
|---|---|---|---|---|---|---|---|
| 1778249764 | 9.44° C | 89% | 1026.6 hPa | - | - | - | - |
| 1778248862 | 9.44° C | 89% | 1026.7 hPa | - | - | - | - |
| 1778247964 | 10° C | 89% | 1026.5 hPa | - | - | - | - |
| 1778247064 | 10° C | 87% | 1026.6 hPa | - | - | - | - |
| 1778246163 | 10.56° C | 87% | 1026.5 hPa | - | - | - | - |
| 1778245262 | 10.56° C | 86% | 1026.6 hPa | - | - | - | - |
| 1778244364 | 11.11° C | 86% | 1027 hPa | - | - | - | - |
| 1778243463 | 11.67° C | 85% | 1027 hPa | - | - | - | - |
| 1778242563 | 12.22° C | 85% | 1027 hPa | - | - | - | - |
| 1778241662 | 12.22° C | 86% | 1027 hPa | - | - | - | - |
| 1778240763 | 12.22° C | 87% | 1026.8 hPa | - | - | - | - |
| 1778239864 | 12.22° C | 86% | 1026.8 hPa | - | - | - | - |
| 1778238963 | 12.22° C | 86% | 1026.7 hPa | - | - | - | - |
| 1778238062 | 12.22° C | 86% | 1026.4 hPa | - | - | - | - |
| 1778237163 | 12.78° C | 85% | 1026.2 hPa | - | - | - | - |
| 1778236264 | 12.78° C | 84% | 1026.1 hPa | - | - | - | - |
| 1778235364 | 13.33° C | 84% | 1025.9 hPa | - | - | - | - |
| 1778234462 | 13.33° C | 82% | 1025.8 hPa | - | - | - | - |
| 1778233563 | 13.33° C | 81% | 1025.7 hPa | - | - | - | - |
| 1778232664 | 12.78° C | 79% | 1025.6 hPa | - | - | - | - |
| 1778231763 | 12.78° C | 79% | 1025.5 hPa | - | - | - | - |
| 1778230862 | 12.78° C | 78% | 1025.5 hPa | - | - | - | - |
| 1778229964 | 13.33° C | 75% | 1025.1 hPa | - | - | - | - |
| 1778229063 | 14.44° C | 73% | 1025 hPa | - | - | - | - |
| 1778228163 | 14.44° C | 73% | 1024.8 hPa | - | - | - | - |
* Rain since midnight (hover to see other rain measurements)
** Current wind speed in m/s (hover to see current wind gust speed)